| time (UTC) | temp C | wind direction | speed KPH | gust KPH | rain 1hr cm | rain 24hr cm | rain mn cm | humidity % | barometer mb |
| 20260505112426 | 23 | 0.0 | 0.0 | 0.00 | 0.00 | 0.00 | 31 | 957.4 | |
| 20260505111421 | 23 | 0.0 | 0.0 | 0.00 | 0.00 | 0.00 | 30 | 957.6 | |
| 20260505110417 | 23 | 0.0 | 0.0 | 0.00 | 0.00 | 0.00 | 29 | 957.6 | |
| 20260505101353 | 23 | 0.0 | 0.0 | 0.00 | 0.00 | 0.00 | 28 | 958.1 | |
| 20260505100349 | 23 | 0.0 | 0.0 | 0.00 | 0.00 | 0.00 | 30 | 958.1 | |
| 20260505095344 | 23 | 0.0 | 0.0 | 0.00 | 0.00 | 0.00 | 31 | 958.1 | |
| 20260505094339 | 23 | 0.0 | 0.0 | 0.00 | 0.00 | 0.00 | 31 | 958.2 | |
| 20260505093335 | 23 | 0.0 | 0.0 | 0.00 | 0.00 | 0.00 | 31 | 958.3 | |
| 20260505092330 | 23 | 0.0 | 0.0 | 0.00 | 0.00 | 0.00 | 31 | 958.4 | |
| 20260505091326 | 23 | 0.0 | 0.0 | 0.00 | 0.00 | 0.00 | 33 | 958.3 | |
| 20260505090322 | 23 | 0.0 | 0.0 | 0.00 | 0.00 | 0.00 | 33 | 958.3 | |
| 20260505085318 | 23 | 0.0 | 0.0 | 0.00 | 0.00 | 0.00 | 33 | 958.4 | |
| 20260505084314 | 23 | 0.0 | 0.0 | 0.00 | 0.00 | 0.00 | 33 | 958.3 | |
| 20260505083310 | 23 | 0.0 | 0.0 | 0.00 | 0.00 | 0.00 | 36 | 958.4 | |
| 20260505082306 | 23 | 0.0 | 0.0 | 0.00 | 0.00 | 0.00 | 34 | 958.6 | |
| 20260505081301 | 23 | 0.0 | 0.0 | 0.00 | 0.00 | 0.00 | 36 | 958.7 | |
| 20260505080257 | 23 | 0.0 | 0.0 | 0.00 | 0.00 | 0.00 | 35 | 958.9 | |
| 20260505075253 | 22 | 0.0 | 0.0 | 0.00 | 0.00 | 0.00 | 36 | 958.9 | |
| 20260505074249 | 22 | 0.0 | 0.0 | 0.00 | 0.00 | 0.00 | 37 | 958.9 | |
| 20260505073245 | 22 | 0.0 | 0.0 | 0.00 | 0.00 | 0.00 | 38 | 959.0 | |
| 20260505072241 | 21 | 0.0 | 0.0 | 0.00 | 0.00 | 0.00 | 37 | 959.1 | |
| 20260505071236 | 21 | 0.0 | 0.0 | 0.00 | 0.00 | 0.00 | 38 | 959.1 | |
| 20260505070232 | 20 | 0.0 | 0.0 | 0.00 | 0.00 | 0.00 | 39 | 959.2 | |
| 20260505065228 | 20 | 0.0 | 0.0 | 0.00 | 0.00 | 0.00 | 40 | 959.3 | |
| 20260505064224 | 19 | 0.0 | 0.0 | 0.00 | 0.00 | 0.00 | 41 | 959.2 | |
| 20260505063220 | 18 | 0.0 | 0.0 | 0.00 | 0.00 | 0.00 | 43 | 959.2 | |
| 20260505062215 | 17 | 0.0 | 0.0 | 0.00 | 0.00 | 0.00 | 45 | 959.2 | |
| 20260505061211 | 16 | 0.0 | 0.0 | 0.00 | 0.00 | 0.00 | 48 | 959.2 | |
| 20260505060207 | 16 | 0.0 | 0.0 | 0.00 | 0.00 | 0.00 | 50 | 959.3 | |
| 20260505055203 | 16 | 0.0 | 0.0 | 0.00 | 0.00 | 0.00 | 50 | 959.2 | |
| 20260505054159 | 15 | 0.0 | 0.0 | 0.00 | 0.00 | 0.00 | 52 | 959.2 | |
| 20260505053155 | 15 | 0.0 | 0.0 | 0.00 | 0.00 | 0.00 | 53 | 959.2 | |
| 20260505052151 | 14 | 0.0 | 0.0 | 0.00 | 0.00 | 0.00 | 54 | 959.1 | |
| 20260505051146 | 14 | 0.0 | 0.0 | 0.00 | 0.00 | 0.00 | 56 | 959.1 | |
| 20260505050142 | 13 | 0.0 | 0.0 | 0.00 | 0.00 | 0.00 | 53 | 959.0 | |
| 20260505041121 | 11 | 0.0 | 0.0 | 0.00 | 0.00 | 0.00 | 63 | 958.8 | |
| 20260505040117 | 11 | 0.0 | 0.0 | 0.00 | 0.00 | 0.00 | 64 | 958.9 | |
| 20260505035113 | 11 | 0.0 | 0.0 | 0.00 | 0.00 | 0.00 | 63 | 958.9 | |
| 20260505034109 | 11 | 0.0 | 0.0 | 0.00 | 0.00 | 0.00 | 63 | 958.9 | |
| 20260505033105 | 11 | 0.0 | 0.0 | 0.00 | 0.00 | 0.00 | 64 | 958.9 | |
| 20260505031056 | 10 | 0.0 | 0.0 | 0.00 | 0.00 | 0.00 | 64 | 959.2 | |
| 20260505030052 | 10 | 0.0 | 0.0 | 0.00 | 0.00 | 0.00 | 64 | 959.3 | |
| 20260505025048 | 10 | 0.0 | 0.0 | 0.00 | 0.00 | 0.00 | 65 | 959.3 | |
| 20260505024044 | 10 | 0.0 | 0.0 | 0.00 | 0.00 | 0.00 | 64 | 959.3 | |
| 20260505023040 | 11 | 0.0 | 0.0 | 0.00 | 0.00 | 0.00 | 64 | 959.4 | |
| 20260505022035 | 11 | 0.0 | 0.0 | 0.00 | 0.00 | 0.00 | 64 | 959.5 | |
| 20260505021031 | 11 | 0.0 | 0.0 | 0.00 | 0.00 | 0.00 | 65 | 959.6 | |
| 20260505020027 | 11 | 0.0 | 0.0 | 0.00 | 0.00 | 0.00 | 64 | 959.7 | |
| 20260505015023 | 11 | 0.0 | 0.0 | 0.00 | 0.00 | 0.00 | 64 | 959.6 | |
| 20260505014018 | 11 | 0.0 | 0.0 | 0.00 | 0.00 | 0.00 | 64 | 959.7 | |
| 20260505013015 | 11 | 0.0 | 0.0 | 0.00 | 0.00 | 0.00 | 64 | 959.7 | |
| 20260505012010 | 11 | 0.0 | 0.0 | 0.00 | 0.00 | 0.00 | 63 | 959.8 | |
| 20260505011006 | 11 | 0.0 | 0.0 | 0.00 | 0.00 | 0.00 | 64 | 959.7 | |
| 20260505010001 | 11 | 0.0 | 0.0 | 0.00 | 0.00 | 0.00 | 63 | 959.8 | |
| 20260505004957 | 11 | 0.0 | 0.0 | 0.00 | 0.00 | 0.00 | 63 | 960.0 | |
| 20260505003952 | 11 | 0.0 | 0.0 | 0.00 | 0.00 | 0.00 | 63 | 960.0 | |
| 20260505002947 | 11 | 0.0 | 0.0 | 0.00 | 0.00 | 0.00 | 63 | 960.1 | |
| 20260505001943 | 11 | 0.0 | 0.0 | 0.00 | 0.00 | 0.00 | 61 | 960.2 | |
| 20260505000938 | 12 | 0.0 | 0.0 | 0.00 | 0.00 | 0.00 | 62 | 960.4 | |
| 20260504235934 | 12 | 0.0 | 0.0 | 0.00 | 0.00 | 0.00 | 61 | 960.4 | |
| 20260504234929 | 12 | 0.0 | 0.0 | 0.00 | 0.00 | 0.00 | 61 | 960.5 | |
| 20260504233925 | 12 | 0.0 | 0.0 | 0.00 | 0.00 | 0.00 | 60 | 960.6 | |
| 20260504232920 | 12 | 0.0 | 0.0 | 0.00 | 0.00 | 0.00 | 59 | 960.6 | |
| 20260504231915 | 12 | 0.0 | 0.0 | 0.00 | 0.00 | 0.00 | 59 | 960.7 | |
| 20260504230911 | 13 | 0.0 | 0.0 | 0.00 | 0.00 | 0.00 | 58 | 960.6 | |
| 20260504225906 | 13 | 0.0 | 0.0 | 0.00 | 0.00 | 0.00 | 58 | 960.7 | |
| 20260504224901 | 13 | 0.0 | 0.0 | 0.00 | 0.00 | 0.00 | 57 | 960.7 | |
| 20260504223857 | 13 | 0.0 | 0.0 | 0.00 | 0.00 | 0.00 | 57 | 960.8 | |
| 20260504222852 | 13 | 0.0 | 0.0 | 0.00 | 0.00 | 0.00 | 55 | 960.9 | |
| 20260504221847 | 14 | 0.0 | 0.0 | 0.00 | 0.00 | 0.00 | 55 | 960.9 | |
| 20260504220843 | 14 | 0.0 | 0.0 | 0.00 | 0.00 | 0.00 | 55 | 961.0 | |
| 20260504215838 | 14 | 0.0 | 0.0 | 0.00 | 0.00 | 0.00 | 54 | 961.0 | |
| 20260504214833 | 14 | 0.0 | 0.0 | 0.00 | 0.00 | 0.00 | 54 | 961.1 | |
| 20260504213829 | 15 | 0.0 | 0.0 | 0.00 | 0.00 | 0.00 | 53 | 961.2 | |
| 20260504212824 | 15 | 0.0 | 0.0 | 0.00 | 0.00 | 0.00 | 53 | 961.2 | |
| 20260504211820 | 15 | 0.0 | 0.0 | 0.00 | 0.00 | 0.00 | 52 | 961.2 | |
| 20260504210815 | 15 | 0.0 | 0.0 | 0.00 | 0.00 | 0.00 | 52 | 961.3 | |
| 20260504205810 | 15 | 0.0 | 0.0 | 0.00 | 0.00 | 0.00 | 52 | 961.3 | |
| 20260504204806 | 15 | 0.0 | 0.0 | 0.00 | 0.00 | 0.00 | 51 | 961.2 | |
| 20260504203802 | 15 | 0.0 | 0.0 | 0.00 | 0.00 | 0.00 | 51 | 961.3 | |
| 20260504202758 | 16 | 0.0 | 0.0 | 0.00 | 0.00 | 0.00 | 50 | 961.2 | |
| 20260504201754 | 16 | 0.0 | 0.0 | 0.00 | 0.00 | 0.00 | 50 | 961.3 | |
| 20260504200749 | 16 | 0.0 | 0.0 | 0.00 | 0.00 | 0.00 | 49 | 961.3 | |
| 20260504195745 | 16 | 0.0 | 0.0 | 0.00 | 0.00 | 0.00 | 48 | 961.3 | |
| 20260504194741 | 16 | 0.0 | 0.0 | 0.00 | 0.00 | 0.00 | 47 | 961.3 | |
| 20260504193737 | 16 | 0.0 | 0.0 | 0.00 | 0.00 | 0.00 | 44 | 961.4 | |
| 20260504192733 | 17 | 0.0 | 0.0 | 0.00 | 0.00 | 0.00 | 44 | 961.4 | |
| 20260504191729 | 17 | 0.0 | 0.0 | 0.00 | 0.00 | 0.00 | 43 | 961.3 | |
| 20260504190725 | 17 | 0.0 | 0.0 | 0.00 | 0.00 | 0.00 | 41 | 961.2 | |
| 20260504185720 | 17 | 0.0 | 0.0 | 0.00 | 0.00 | 0.00 | 41 | 961.2 | |
| 20260504184716 | 18 | 0.0 | 0.0 | 0.00 | 0.00 | 0.00 | 40 | 961.1 | |
| 20260504183712 | 18 | 0.0 | 0.0 | 0.00 | 0.00 | 0.00 | 41 | 961.0 | |
| 20260504182708 | 18 | 0.0 | 0.0 | 0.00 | 0.00 | 0.00 | 41 | 960.9 | |
| 20260504181704 | 18 | 0.0 | 0.0 | 0.00 | 0.00 | 0.00 | 40 | 960.9 | |
| 20260504180700 | 19 | 0.0 | 0.0 | 0.00 | 0.00 | 0.00 | 39 | 960.9 | |
| 20260504175655 | 19 | 0.0 | 0.0 | 0.00 | 0.00 | 0.00 | 39 | 960.9 | |
| 20260504174651 | 20 | 0.0 | 0.0 | 0.00 | 0.00 | 0.00 | 39 | 960.8 | |
| 20260504173647 | 20 | 0.0 | 0.0 | 0.00 | 0.00 | 0.00 | 38 | 960.8 | |
| 20260504172643 | 20 | 0.0 | 0.0 | 0.00 | 0.00 | 0.00 | 38 | 960.8 | |
| 20260504171639 | 20 | 0.0 | 0.0 | 0.00 | 0.00 | 0.00 | 38 | 960.8 | |
| 20260504170635 | 21 | 0.0 | 0.0 | 0.00 | 0.00 | 0.00 | 37 | 960.8 | |
| 20260504150545 | 22 | 0.0 | 0.0 | 0.00 | 0.00 | 0.00 | 31 | 961.3 | |
| 20260504140519 | 22 | 0.0 | 0.0 | 0.00 | 0.00 | 0.00 | 31 | 961.9 | |
| 20260504130454 | 22 | 0.0 | 0.0 | 0.00 | 0.00 | 0.00 | 31 | 962.6 |